Time,TemperatureF,DewpointF,PressureIn,WindDirection,WindDirectionDegrees,WindSpeedMPH,WindSpeedGustMPH,Humidity,HourlyPrecipIn,Conditions,Clouds,dailyrainin,SoftwareType,DateUTC
2013-07-23 00:01:00,66.3,65.4,29.89,NW,323,0.0,4.0,97,0.00,,---,0.38,VWS V14.00,2013-07-23 04:01:00,
2013-07-23 00:06:00,66.3,65.4,29.89,NW,323,0.0,4.0,97,0.00,,---,0.38,VWS V14.00,2013-07-23 04:06:00,
2013-07-23 00:11:00,66.3,65.4,29.88,NW,323,0.0,3.0,97,0.00,,---,0.00,VWS V14.00,2013-07-23 04:11:00,
2013-07-23 00:16:00,66.2,65.3,29.88,NW,323,0.0,3.0,97,0.00,,---,0.00,VWS V14.00,2013-07-23 04:16:00,
2013-07-23 00:21:00,66.2,65.3,29.88,NW,323,0.0,3.0,97,0.00,,---,0.00,VWS V14.00,2013-07-23 04:21:00,
2013-07-23 00:26:00,66.3,65.4,29.88,NW,323,0.0,3.0,97,0.00,,---,0.00,VWS V14.00,2013-07-23 04:26:00,
2013-07-23 00:31:00,66.2,65.3,29.88,NW,323,0.0,3.0,97,0.00,,---,0.00,VWS V14.00,2013-07-23 04:31:00,
2013-07-23 00:36:00,66.1,65.2,29.88,NNW,343,0.0,3.0,97,0.00,,---,0.00,VWS V14.00,2013-07-23 04:36:00,
2013-07-23 00:41:00,66.0,65.1,29.87,ESE,117,0.0,2.0,97,0.00,,---,0.00,VWS V14.00,2013-07-23 04:41:00,
2013-07-23 00:46:00,66.0,65.1,29.87,NNW,348,0.0,6.0,97,0.00,,---,0.00,VWS V14.00,2013-07-23 04:46:00,
2013-07-23 00:51:00,66.0,65.1,29.87,NNW,333,0.0,6.0,97,0.00,,---,0.00,VWS V14.00,2013-07-23 04:51:00,
2013-07-23 00:56:00,66.0,65.1,29.87,NNW,335,0.0,6.0,97,0.00,,---,0.00,VWS V14.00,2013-07-23 04:56:00,
2013-07-23 01:01:00,65.9,65.0,29.87,NNW,334,0.0,6.0,97,0.00,,---,0.00,VWS V14.00,2013-07-23 05:01:00,
2013-07-23 01:06:00,65.9,65.0,29.87,NNW,336,0.0,6.0,97,0.00,,---,0.00,VWS V14.00,2013-07-23 05:06:00,
2013-07-23 01:11:00,65.8,64.9,29.87,NNW,336,0.0,0.0,97,0.00,,---,0.00,VWS V14.00,2013-07-23 05:11:00,
2013-07-23 01:16:00,65.8,64.9,29.87,NNW,336,0.0,1.0,97,0.00,,---,0.00,VWS V14.00,2013-07-23 05:16:00,
2013-07-23 01:21:00,65.7,64.8,29.87,NNW,336,0.0,1.0,97,0.00,,---,0.00,VWS V14.00,2013-07-23 05:21:00,
2013-07-23 01:26:00,65.7,64.8,29.87,NNW,336,1.0,1.0,97,0.00,,---,0.00,VWS V14.00,2013-07-23 05:26:00,
2013-07-23 01:31:00,65.6,64.7,29.87,SSE,150,0.0,2.0,97,0.00,,---,0.00,VWS V14.00,2013-07-23 05:31:00,
2013-07-23 01:36:00,65.5,64.6,29.87,SSE,150,0.0,2.0,97,0.00,,---,0.00,VWS V14.00,2013-07-23 05:36:00,
2013-07-23 01:41:00,65.5,64.6,29.87,SSE,150,0.0,0.0,97,0.00,,---,0.00,VWS V14.00,2013-07-23 05:41:00,
2013-07-23 01:46:00,65.5,64.6,29.87,SSE,150,0.0,0.0,97,0.00,,---,0.00,VWS V14.00,2013-07-23 05:46:00,
2013-07-23 01:51:00,65.4,64.5,29.87,SSE,150,0.0,0.0,97,0.00,,---,0.00,VWS V14.00,2013-07-23 05:51:00,
2013-07-23 01:56:00,65.3,64.4,29.87,SSE,150,0.0,0.0,97,0.00,,---,0.00,VWS V14.00,2013-07-23 05:56:00,
2013-07-23 02:01:00,65.2,64.3,29.87,SSE,150,0.0,1.0,97,0.00,,---,0.00,VWS V14.00,2013-07-23 06:01:00,
2013-07-23 02:06:00,65.1,64.2,29.87,WSW,244,0.0,3.0,97,0.00,,---,0.00,VWS V14.00,2013-07-23 06:06:00,
2013-07-23 02:11:00,65.1,64.2,29.89,WSW,244,0.0,0.0,97,0.00,,---,0.00,VWS V14.00,2013-07-23 06:11:00,
2013-07-23 02:16:00,65.0,64.1,29.89,WSW,244,0.0,0.0,97,0.00,,---,0.00,VWS V14.00,2013-07-23 06:16:00,
2013-07-23 02:21:00,65.0,64.1,29.89,WSW,244,0.0,0.0,97,0.00,,---,0.00,VWS V14.00,2013-07-23 06:21:00,
2013-07-23 02:26:00,64.9,64.0,29.88,WSW,244,0.0,1.0,97,0.00,,---,0.00,VWS V14.00,2013-07-23 06:26:00,
2013-07-23 02:31:00,64.9,64.0,29.89,WSW,244,0.0,1.0,97,0.00,,---,0.00,VWS V14.00,2013-07-23 06:31:00,
2013-07-23 02:36:00,64.9,64.0,29.89,WSW,244,0.0,1.0,97,0.00,,---,0.00,VWS V14.00,2013-07-23 06:36:00,
2013-07-23 02:41:00,65.0,64.1,29.89,WSW,244,0.0,0.0,97,0.00,,---,0.00,VWS V14.00,2013-07-23 06:41:00,
2013-07-23 02:46:00,65.1,64.2,29.88,WSW,244,0.0,0.0,97,0.00,,---,0.00,VWS V14.00,2013-07-23 06:46:00,
2013-07-23 02:51:00,65.2,64.6,29.88,WSW,244,0.0,0.0,98,0.00,,---,0.00,VWS V14.00,2013-07-23 06:51:00,
2013-07-23 02:56:00,65.2,64.6,29.88,WSW,244,0.0,1.0,98,0.00,,---,0.00,VWS V14.00,2013-07-23 06:56:00,
2013-07-23 03:01:00,65.2,64.6,29.87,WSW,244,0.0,1.0,98,0.00,,---,0.00,VWS V14.00,2013-07-23 07:01:00,
2013-07-23 03:06:00,65.2,64.6,29.88,WSW,244,0.0,2.0,98,0.00,,---,0.00,VWS V14.00,2013-07-23 07:06:00,
2013-07-23 03:11:00,65.3,64.7,29.87,SE,139,4.0,5.0,98,0.00,,---,0.00,VWS V14.00,2013-07-23 07:11:00,
2013-07-23 03:16:00,65.4,64.8,29.87,SE,146,0.0,5.0,98,0.00,,---,0.00,VWS V14.00,2013-07-23 07:16:00,
2013-07-23 03:21:00,65.4,64.8,29.87,South,184,4.0,5.0,98,0.00,,---,0.00,VWS V14.00,2013-07-23 07:21:00,
2013-07-23 03:26:00,65.5,64.9,29.87,SSE,150,0.0,10.0,98,0.00,,---,0.00,VWS V14.00,2013-07-23 07:26:00,
2013-07-23 03:31:00,65.7,65.1,29.87,SW,231,0.0,10.0,98,0.00,,---,0.00,VWS V14.00,2013-07-23 07:31:00,
2013-07-23 03:36:00,65.7,65.1,29.87,South,174,2.0,10.0,98,0.00,,---,0.00,VWS V14.00,2013-07-23 07:36:00,
2013-07-23 03:41:00,65.7,64.8,29.87,South,180,2.0,4.0,97,0.00,,---,0.00,VWS V14.00,2013-07-23 07:41:00,
2013-07-23 03:46:00,65.7,64.8,29.87,SE,138,0.0,5.0,97,0.00,,---,0.00,VWS V14.00,2013-07-23 07:46:00,
2013-07-23 03:51:00,65.7,64.8,29.86,SE,142,4.0,6.0,97,0.00,,---,0.00,VWS V14.00,2013-07-23 07:51:00,
2013-07-23 03:56:00,65.8,64.9,29.87,SE,143,0.0,6.0,97,0.00,,---,0.00,VWS V14.00,2013-07-23 07:56:00,
2013-07-23 04:01:00,65.8,64.9,29.87,SE,143,0.0,6.0,97,0.00,,---,0.00,VWS V14.00,2013-07-23 08:01:00,
2013-07-23 04:06:00,65.8,64.9,29.87,SE,143,0.0,6.0,97,0.00,,---,0.00,VWS V14.00,2013-07-23 08:06:00,
2013-07-23 04:11:00,65.8,64.9,29.86,SE,142,0.0,0.0,97,0.00,,---,0.00,VWS V14.00,2013-07-23 08:11:00,
2013-07-23 04:16:00,65.8,64.9,29.86,South,180,0.0,4.0,97,0.00,,---,0.00,VWS V14.00,2013-07-23 08:16:00,
2013-07-23 04:21:00,65.8,64.9,29.86,South,180,0.0,4.0,97,0.00,,---,0.00,VWS V14.00,2013-07-23 08:21:00,
2013-07-23 04:26:00,65.8,64.9,29.86,SSE,157,0.0,4.0,97,0.00,,---,0.00,VWS V14.00,2013-07-23 08:26:00,
2013-07-23 04:31:00,65.8,64.9,29.86,SSE,153,3.0,6.0,97,0.00,,---,0.00,VWS V14.00,2013-07-23 08:31:00,
2013-07-23 04:36:00,65.8,64.9,29.87,SSE,148,0.0,6.0,97,0.00,,---,0.00,VWS V14.00,2013-07-23 08:36:00,
2013-07-23 04:41:00,65.8,64.9,29.87,SSE,148,0.0,2.0,97,0.00,,---,0.00,VWS V14.00,2013-07-23 08:41:00,
2013-07-23 04:46:00,65.8,65.2,29.87,ESE,117,4.0,5.0,98,0.00,,---,0.00,VWS V14.00,2013-07-23 08:46:00,
2013-07-23 04:51:00,65.9,65.3,29.87,SE,144,0.0,9.0,98,0.00,,---,0.00,VWS V14.00,2013-07-23 08:51:00,
2013-07-23 04:56:00,65.9,65.0,29.87,SSE,161,0.0,9.0,97,0.00,,---,0.00,VWS V14.00,2013-07-23 08:56:00,
2013-07-23 05:01:00,65.9,65.0,29.87,SSW,209,1.0,9.0,97,0.00,,---,0.00,VWS V14.00,2013-07-23 09:01:00,
2013-07-23 05:06:00,65.8,64.9,29.87,ESE,111,0.0,9.0,97,0.00,,---,0.00,VWS V14.00,2013-07-23 09:06:00,
2013-07-23 05:11:00,65.9,65.0,29.88,SSW,203,0.0,1.0,97,0.00,,---,0.00,VWS V14.00,2013-07-23 09:11:00,
2013-07-23 05:16:00,65.9,65.0,29.88,SSE,149,0.0,4.0,97,0.00,,---,0.00,VWS V14.00,2013-07-23 09:16:00,
2013-07-23 05:21:00,65.9,65.0,29.88,SSW,203,0.0,4.0,97,0.00,,---,0.00,VWS V14.00,2013-07-23 09:21:00,
2013-07-23 05:26:00,65.9,65.0,29.88,ESE,109,0.0,4.0,97,0.00,,---,0.00,VWS V14.00,2013-07-23 09:26:00,
2013-07-23 05:31:00,65.9,65.0,29.88,ESE,117,0.0,4.0,97,0.00,,---,0.00,VWS V14.00,2013-07-23 09:31:00,
2013-07-23 05:36:00,65.8,64.9,29.88,ESE,117,0.0,4.0,97,0.00,,---,0.00,VWS V14.00,2013-07-23 09:36:00,
2013-07-23 05:41:00,65.8,64.9,29.88,ESE,117,0.0,0.0,97,0.00,,---,0.00,VWS V14.00,2013-07-23 09:41:00,
2013-07-23 05:46:00,65.8,64.6,29.88,SSW,195,0.0,4.0,96,0.00,,---,0.00,VWS V14.00,2013-07-23 09:46:00,
2013-07-23 05:51:00,65.8,64.6,29.89,SSW,195,0.0,4.0,96,0.00,,---,0.00,VWS V14.00,2013-07-23 09:51:00,
2013-07-23 05:56:00,65.8,64.6,29.89,SSW,202,0.0,4.0,96,0.00,,---,0.00,VWS V14.00,2013-07-23 09:56:00,
2013-07-23 06:01:00,65.8,64.6,29.89,SSW,202,0.0,4.0,96,0.00,,---,0.00,VWS V14.00,2013-07-23 10:01:00,
2013-07-23 06:06:00,65.8,64.6,29.89,SSW,202,0.0,4.0,96,0.00,,---,0.00,VWS V14.00,2013-07-23 10:06:00,
2013-07-23 06:11:00,65.8,64.6,29.90,SSW,202,0.0,1.0,96,0.00,,---,0.00,VWS V14.00,2013-07-23 10:11:00,
2013-07-23 06:16:00,65.8,64.3,29.91,SE,141,7.0,7.0,95,0.00,,---,0.00,VWS V14.00,2013-07-23 10:16:00,
2013-07-23 06:21:00,65.8,64.3,29.91,SSE,157,0.0,7.0,95,0.00,,---,0.00,VWS V14.00,2013-07-23 10:21:00,
2013-07-23 06:26:00,65.9,64.4,29.90,SSE,156,0.0,7.0,95,0.00,,---,0.00,VWS V14.00,2013-07-23 10:26:00,
2013-07-23 06:31:00,66.0,64.5,29.90,SSE,157,0.0,7.0,95,0.00,,---,0.00,VWS V14.00,2013-07-23 10:31:00,
2013-07-23 06:36:00,66.0,64.5,29.90,SSE,157,0.0,7.0,95,0.00,,---,0.00,VWS V14.00,2013-07-23 10:36:00,
2013-07-23 06:41:00,65.9,64.4,29.91,SW,217,1.0,2.0,95,0.00,,---,0.00,VWS V14.00,2013-07-23 10:41:00,
2013-07-23 06:46:00,65.9,64.4,29.91,South,191,0.0,4.0,95,0.00,,---,0.00,VWS V14.00,2013-07-23 10:46:00,
2013-07-23 06:51:00,65.9,64.4,29.91,SSE,164,0.0,6.0,95,0.00,,---,0.00,VWS V14.00,2013-07-23 10:51:00,
2013-07-23 06:56:00,65.9,64.4,29.91,SSE,161,0.0,6.0,95,0.00,,---,0.00,VWS V14.00,2013-07-23 10:56:00,
2013-07-23 07:01:00,66.0,64.5,29.91,SSE,156,0.0,6.0,95,0.00,,---,0.00,VWS V14.00,2013-07-23 11:01:00,
2013-07-23 07:06:00,66.0,64.5,29.91,SSE,156,0.0,6.0,95,0.00,,---,0.00,VWS V14.00,2013-07-23 11:06:00,
2013-07-23 07:11:00,66.1,64.6,29.91,SSE,157,0.0,1.0,95,0.00,,---,0.00,VWS V14.00,2013-07-23 11:11:00,
2013-07-23 07:16:00,66.1,64.6,29.91,SSE,157,0.0,1.0,95,0.00,,---,0.00,VWS V14.00,2013-07-23 11:16:00,
2013-07-23 07:21:00,66.1,64.6,29.91,SSE,159,2.0,2.0,95,0.00,,---,0.00,VWS V14.00,2013-07-23 11:21:00,
2013-07-23 07:26:00,66.1,64.6,29.91,SSE,160,0.0,3.0,95,0.00,,---,0.00,VWS V14.00,2013-07-23 11:26:00,
2013-07-23 07:31:00,66.1,64.6,29.91,SSE,160,0.0,3.0,95,0.00,,---,0.00,VWS V14.00,2013-07-23 11:31:00,
2013-07-23 07:36:00,66.2,64.7,29.92,South,191,0.0,3.0,95,0.00,,---,0.00,VWS V14.00,2013-07-23 11:36:00,
2013-07-23 07:41:00,66.3,65.1,29.91,SSW,207,0.0,1.0,96,0.00,,---,0.00,VWS V14.00,2013-07-23 11:41:00,
2013-07-23 07:46:00,66.3,65.1,29.91,SSW,207,0.0,1.0,96,0.00,,---,0.00,VWS V14.00,2013-07-23 11:46:00,
2013-07-23 07:51:00,66.4,65.2,29.91,SSW,207,0.0,1.0,96,0.00,,---,0.00,VWS V14.00,2013-07-23 11:51:00,
2013-07-23 07:56:00,66.5,65.3,29.91,SSW,207,0.0,1.0,96,0.00,,---,0.00,VWS V14.00,2013-07-23 11:56:00,
2013-07-23 08:01:00,66.6,65.4,29.91,SSW,207,0.0,1.0,96,0.00,,---,0.00,VWS V14.00,2013-07-23 12:01:00,
2013-07-23 08:06:00,66.8,65.6,29.91,SSW,208,0.0,1.0,96,0.00,,---,0.00,VWS V14.00,2013-07-23 12:06:00,
2013-07-23 08:11:00,67.0,65.8,29.91,SSW,208,0.0,0.0,96,0.00,,---,0.00,VWS V14.00,2013-07-23 12:11:00,
2013-07-23 08:16:00,67.1,65.9,29.91,SSW,208,0.0,1.0,96,0.00,,---,0.00,VWS V14.00,2013-07-23 12:16:00,
2013-07-23 08:21:00,67.4,66.2,29.91,SSE,157,0.0,3.0,96,0.00,,---,0.00,VWS V14.00,2013-07-23 12:21:00,
2013-07-23 08:26:00,67.7,66.5,29.90,SSE,156,0.0,3.0,96,0.00,,---,0.00,VWS V14.00,2013-07-23 12:26:00,
2013-07-23 08:31:00,67.9,66.4,29.90,SSE,156,0.0,3.0,95,0.00,,---,0.00,VWS V14.00,2013-07-23 12:31:00,
2013-07-23 08:36:00,68.2,67.0,29.90,SSE,156,0.0,3.0,96,0.00,,---,0.00,VWS V14.00,2013-07-23 12:36:00,
2013-07-23 08:41:00,68.4,67.2,29.90,SSE,156,0.0,0.0,96,0.00,,---,0.00,VWS V14.00,2013-07-23 12:41:00,
2013-07-23 08:45:00,68.5,67.0,29.91,South,175,0.0,2.0,95,0.00,,---,0.00,VWS V14.00,2013-07-23 12:45:00,
2013-07-23 08:50:00,68.6,66.8,29.90,South,173,0.0,2.0,94,0.00,,---,0.00,VWS V14.00,2013-07-23 12:50:00,
2013-07-23 08:55:00,68.9,67.1,29.91,South,171,0.0,5.0,94,0.00,,---,0.00,VWS V14.00,2013-07-23 12:55:00,
2013-07-23 09:00:00,69.1,67.3,29.90,SSE,147,1.0,5.0,94,0.00,,---,0.00,VWS V14.00,2013-07-23 13:00:00,
2013-07-23 09:05:00,69.0,66.6,29.90,SE,134,2.0,5.0,92,0.00,,---,0.00,VWS V14.00,2013-07-23 13:05:00,
2013-07-23 09:10:00,69.1,67.0,29.90,SSE,157,0.0,0.0,93,0.00,,---,0.00,VWS V14.00,2013-07-23 13:10:00,
2013-07-23 09:15:00,69.4,67.3,29.91,SSE,157,4.0,4.0,93,0.00,,---,0.00,VWS V14.00,2013-07-23 13:15:00,
2013-07-23 09:20:00,69.7,67.6,29.90,South,178,4.0,4.0,93,0.00,,---,0.00,VWS V14.00,2013-07-23 13:20:00,
2013-07-23 09:25:00,69.9,67.5,29.90,SSE,153,0.0,4.0,92,0.00,,---,0.00,VWS V14.00,2013-07-23 13:25:00,
2013-07-23 09:30:00,69.9,67.2,29.90,SSW,206,0.0,4.0,91,0.00,,---,0.00,VWS V14.00,2013-07-23 13:30:00,
2013-07-23 09:35:00,70.0,67.3,29.90,SSW,207,0.0,4.0,91,0.00,,---,0.00,VWS V14.00,2013-07-23 13:35:00,
2013-07-23 09:40:00,70.1,67.0,29.90,SSW,196,0.0,1.0,90,0.00,,---,0.00,VWS V14.00,2013-07-23 13:40:00,
2013-07-23 09:45:00,70.2,67.1,29.90,SSE,163,0.0,2.0,90,0.00,,---,0.00,VWS V14.00,2013-07-23 13:45:00,
2013-07-23 09:50:00,70.3,67.2,29.90,SSE,163,0.0,2.0,90,0.00,,---,0.00,VWS V14.00,2013-07-23 13:50:00,
2013-07-23 09:55:00,70.4,67.3,29.91,SSE,163,0.0,3.0,90,0.00,,---,0.00,VWS V14.00,2013-07-23 13:55:00,
2013-07-23 10:00:00,70.6,67.8,29.90,South,180,0.0,3.0,91,0.00,,---,0.00,VWS V14.00,2013-07-23 14:00:00,
2013-07-23 10:05:00,70.8,67.7,29.90,SSE,160,4.0,4.0,90,0.00,,---,0.00,VWS V14.00,2013-07-23 14:05:00,
2013-07-23 10:10:00,71.1,67.7,29.90,South,176,0.0,3.0,89,0.00,,---,0.00,VWS V14.00,2013-07-23 14:10:00,
2013-07-23 10:15:00,71.3,67.9,29.90,SSE,152,0.0,4.0,89,0.00,,---,0.00,VWS V14.00,2013-07-23 14:15:00,
2013-07-23 10:20:00,71.6,67.9,29.90,South,171,0.0,6.0,88,0.00,,---,0.00,VWS V14.00,2013-07-23 14:20:00,
2013-07-23 10:25:00,72.1,69.0,29.90,South,184,0.0,6.0,90,0.00,,---,0.00,VWS V14.00,2013-07-23 14:25:00,
2013-07-23 10:30:00,72.5,69.1,29.90,South,184,1.0,6.0,89,0.00,,---,0.00,VWS V14.00,2013-07-23 14:30:00,
2013-07-23 10:35:00,72.6,68.2,29.91,SSW,195,0.0,6.0,86,0.00,,---,0.00,VWS V14.00,2013-07-23 14:35:00,
2013-07-23 10:40:00,72.8,68.7,29.91,SSE,159,0.0,6.0,87,0.00,,---,0.00,VWS V14.00,2013-07-23 14:40:00,
2013-07-23 10:45:00,72.9,68.1,29.91,SE,140,0.0,9.0,85,0.00,,---,0.00,VWS V14.00,2013-07-23 14:45:00,
2013-07-23 10:50:00,73.2,69.8,29.91,SE,140,0.0,9.0,89,0.00,,---,0.00,VWS V14.00,2013-07-23 14:50:00,
2013-07-23 10:55:00,73.6,69.2,29.90,SSE,148,0.0,9.0,86,0.00,,---,0.00,VWS V14.00,2013-07-23 14:55:00,
2013-07-23 11:00:00,73.8,68.3,29.91,ENE,61,2.0,9.0,83,0.00,,---,0.00,VWS V14.00,2013-07-23 15:00:00,
2013-07-23 11:05:00,74.0,68.9,29.90,East,98,0.0,9.0,84,0.00,,---,0.00,VWS V14.00,2013-07-23 15:05:00,
2013-07-23 11:10:00,74.4,69.6,29.90,SSE,164,0.0,2.0,85,0.00,,---,0.00,VWS V14.00,2013-07-23 15:10:00,
2013-07-23 11:15:00,74.8,70.0,29.91,SSE,166,0.0,5.0,85,0.00,,---,0.00,VWS V14.00,2013-07-23 15:15:00,
2013-07-23 11:20:00,75.3,68.3,29.91,SSE,165,0.0,5.0,79,0.00,,---,0.00,VWS V14.00,2013-07-23 15:20:00,
2013-07-23 11:25:00,76.0,70.8,29.91,SE,145,4.0,5.0,84,0.00,,---,0.00,VWS V14.00,2013-07-23 15:25:00,
2013-07-23 11:30:00,76.6,70.7,29.91,ENE,72,0.0,8.0,82,0.00,,---,0.00,VWS V14.00,2013-07-23 15:30:00,
2013-07-23 11:35:00,76.9,70.3,29.91,SSE,153,5.0,13.0,80,0.00,,---,0.00,VWS V14.00,2013-07-23 15:35:00,
2013-07-23 11:40:00,76.9,70.3,29.91,SSE,164,0.0,5.0,80,0.00,,---,0.00,VWS V14.00,2013-07-23 15:40:00,
2013-07-23 11:45:00,77.4,72.2,29.91,SE,135,9.0,12.0,84,0.00,,---,0.00,VWS V14.00,2013-07-23 15:45:00,
2013-07-23 11:50:00,77.6,70.2,29.90,SE,136,1.0,12.0,78,0.00,,---,0.00,VWS V14.00,2013-07-23 15:50:00,
2013-07-23 11:55:00,78.0,70.2,29.90,East,97,0.0,12.0,77,0.00,,---,0.00,VWS V14.00,2013-07-23 15:55:00,
2013-07-23 12:00:00,78.3,70.1,29.90,South,169,4.0,12.0,76,0.00,,---,0.00,VWS V14.00,2013-07-23 16:00:00,
2013-07-23 12:05:00,77.8,69.2,29.90,SW,226,0.0,12.0,75,0.00,,---,0.00,VWS V14.00,2013-07-23 16:05:00,
2013-07-23 12:10:00,77.5,70.5,29.90,SSE,150,0.0,3.0,79,0.00,,---,0.00,VWS V14.00,2013-07-23 16:10:00,
2013-07-23 12:15:00,77.4,70.8,29.90,SSE,149,0.0,5.0,80,0.00,,---,0.00,VWS V14.00,2013-07-23 16:15:00,
2013-07-23 12:20:00,77.2,70.6,29.91,SSE,153,0.0,5.0,80,0.00,,---,0.00,VWS V14.00,2013-07-23 16:20:00,
2013-07-23 12:25:00,77.2,71.3,29.91,SSE,153,0.0,5.0,82,0.00,,---,0.00,VWS V14.00,2013-07-23 16:25:00,
2013-07-23 12:30:00,77.1,70.1,29.91,SSE,152,0.0,5.0,79,0.00,,---,0.00,VWS V14.00,2013-07-23 16:30:00,
2013-07-23 12:35:00,77.0,70.7,29.90,SSE,152,0.0,5.0,81,0.00,,---,0.00,VWS V14.00,2013-07-23 16:35:00,
2013-07-23 12:40:00,77.0,69.6,29.90,SSE,168,0.0,3.0,78,0.00,,---,0.00,VWS V14.00,2013-07-23 16:40:00,
2013-07-23 12:45:00,77.0,70.0,29.90,SSE,168,0.0,3.0,79,0.00,,---,0.00,VWS V14.00,2013-07-23 16:45:00,
2013-07-23 12:50:00,77.3,71.4,29.89,SSE,168,0.0,3.0,82,0.00,,---,0.00,VWS V14.00,2013-07-23 16:50:00,
2013-07-23 12:55:00,77.4,70.8,29.89,SSE,168,0.0,3.0,80,0.00,,---,0.00,VWS V14.00,2013-07-23 16:55:00,
2013-07-23 13:00:00,77.6,72.0,29.88,SSE,168,0.0,3.0,83,0.00,,---,0.00,VWS V14.00,2013-07-23 17:00:00,
2013-07-23 13:05:00,78.1,70.7,29.87,SSE,166,1.0,5.0,78,0.00,,---,0.00,VWS V14.00,2013-07-23 17:05:00,
2013-07-23 13:10:00,79.1,74.2,29.86,ESE,123,2.0,5.0,85,0.00,,---,0.00,VWS V14.00,2013-07-23 17:10:00,
2013-07-23 13:15:00,79.4,70.8,29.87,ESE,117,0.0,5.0,75,0.00,,---,0.00,VWS V14.00,2013-07-23 17:15:00,
2013-07-23 13:20:00,79.4,71.6,29.86,ESE,117,0.0,5.0,77,0.00,,---,0.00,VWS V14.00,2013-07-23 17:20:00,
2013-07-23 13:25:00,79.4,71.2,29.86,ESE,117,0.0,5.0,76,0.00,,---,0.00,VWS V14.00,2013-07-23 17:25:00,
2013-07-23 13:30:00,78.9,70.3,29.86,WSW,250,0.0,5.0,75,0.00,,---,0.00,VWS V14.00,2013-07-23 17:30:00,
2013-07-23 13:35:00,78.7,70.1,29.86,SSE,161,0.0,5.0,75,0.00,,---,0.00,VWS V14.00,2013-07-23 17:35:00,
2013-07-23 13:40:00,79.3,72.2,29.86,SE,138,0.0,3.0,79,0.00,,---,0.00,VWS V14.00,2013-07-23 17:40:00,
2013-07-23 13:45:00,79.7,70.7,29.85,NE,52,0.0,6.0,74,0.00,,---,0.00,VWS V14.00,2013-07-23 17:45:00,
2013-07-23 13:50:00,79.8,70.8,29.85,SSW,192,0.0,6.0,74,0.00,,---,0.00,VWS V14.00,2013-07-23 17:50:00,
2013-07-23 13:55:00,80.3,71.3,29.85,South,169,0.0,6.0,74,0.00,,---,0.00,VWS V14.00,2013-07-23 17:55:00,
2013-07-23 14:01:00,81.0,73.1,29.83,South,186,0.0,6.0,77,0.00,,---,0.00,VWS V14.00,2013-07-23 18:01:00,
2013-07-23 14:06:00,81.4,71.5,29.84,SSE,148,0.0,6.0,72,0.00,,---,0.00,VWS V14.00,2013-07-23 18:06:00,
2013-07-23 14:11:00,81.2,70.9,29.84,SSW,197,0.0,1.0,71,0.00,,---,0.00,VWS V14.00,2013-07-23 18:11:00,
2013-07-23 14:16:00,80.9,71.4,29.84,SSW,196,0.0,2.0,73,0.00,,---,0.00,VWS V14.00,2013-07-23 18:16:00,
2013-07-23 14:21:00,80.7,72.4,29.84,SSW,196,0.0,2.0,76,0.00,,---,0.00,VWS V14.00,2013-07-23 18:21:00,
2013-07-23 14:26:00,80.6,71.9,29.84,SSW,196,0.0,2.0,75,0.00,,---,0.00,VWS V14.00,2013-07-23 18:26:00,
2013-07-23 14:31:00,80.6,73.5,29.83,SSW,196,0.0,2.0,79,0.00,,---,0.00,VWS V14.00,2013-07-23 18:31:00,
2013-07-23 14:36:00,80.3,71.7,29.84,SSW,196,0.0,2.0,75,0.00,,---,0.00,VWS V14.00,2013-07-23 18:36:00,
2013-07-23 14:41:00,79.9,71.3,29.85,SW,220,0.0,4.0,75,0.00,,---,0.00,VWS V14.00,2013-07-23 18:41:00,
2013-07-23 14:46:00,79.7,71.5,29.84,SW,223,0.0,4.0,76,0.00,,---,0.00,VWS V14.00,2013-07-23 18:46:00,
2013-07-23 14:51:00,79.6,72.5,29.84,SW,223,0.0,4.0,79,0.00,,---,0.00,VWS V14.00,2013-07-23 18:51:00,
2013-07-23 14:56:00,79.6,72.1,29.84,SW,222,0.0,4.0,78,0.00,,---,0.00,VWS V14.00,2013-07-23 18:56:00,
2013-07-23 15:02:00,79.6,71.8,29.83,SW,222,0.0,4.0,77,0.00,,---,0.00,VWS V14.00,2013-07-23 19:02:00,
2013-07-23 15:07:00,79.4,71.2,29.84,SW,222,0.0,4.0,76,0.00,,---,0.00,VWS V14.00,2013-07-23 19:07:00,
2013-07-23 15:12:00,79.4,73.1,29.82,SW,221,0.0,1.0,81,0.00,,---,0.00,VWS V14.00,2013-07-23 19:12:00,
2013-07-23 15:17:00,79.3,72.6,29.83,South,170,1.0,4.0,80,0.00,,---,0.00,VWS V14.00,2013-07-23 19:17:00,
2013-07-23 15:22:00,78.9,71.5,29.83,SE,145,1.0,7.0,78,0.00,,---,0.00,VWS V14.00,2013-07-23 19:22:00,
2013-07-23 15:27:00,78.6,71.9,29.83,WSW,256,0.0,7.0,80,0.00,,---,0.00,VWS V14.00,2013-07-23 19:27:00,
2013-07-23 15:32:00,78.2,71.5,29.83,SSW,200,0.0,7.0,80,0.00,,---,0.00,VWS V14.00,2013-07-23 19:32:00,
2013-07-23 15:37:00,78.2,73.3,29.83,SSW,200,0.0,7.0,85,0.00,,---,0.00,VWS V14.00,2013-07-23 19:37:00,
2013-07-23 15:42:00,77.9,72.7,29.82,SSW,200,1.0,1.0,84,0.00,,---,0.00,VWS V14.00,2013-07-23 19:42:00,
2013-07-23 15:47:00,77.6,72.0,29.82,South,178,0.0,2.0,83,0.00,,---,0.00,VWS V14.00,2013-07-23 19:47:00,
2013-07-23 15:52:00,77.3,71.0,29.83,South,191,0.0,2.0,81,0.00,,---,0.00,VWS V14.00,2013-07-23 19:52:00,
2013-07-23 15:57:00,77.1,70.8,29.83,SSW,211,0.0,2.0,81,0.00,,---,0.00,VWS V14.00,2013-07-23 19:57:00,
2013-07-23 16:02:00,77.0,71.4,29.83,SSW,211,0.0,2.0,83,0.00,,---,0.00,VWS V14.00,2013-07-23 20:02:00,
2013-07-23 16:07:00,76.8,71.2,29.83,SSW,213,0.0,2.0,83,0.00,,---,0.00,VWS V14.00,2013-07-23 20:07:00,
2013-07-23 16:12:00,76.7,71.9,29.82,SSW,213,0.0,0.0,85,0.00,,---,0.00,VWS V14.00,2013-07-23 20:12:00,
2013-07-23 16:18:00,76.6,71.8,29.82,SSE,158,0.0,3.0,85,0.00,,---,0.00,VWS V14.00,2013-07-23 20:18:00,
2013-07-23 16:23:00,76.6,72.4,29.82,SSE,159,0.0,3.0,87,0.00,,---,0.00,VWS V14.00,2013-07-23 20:23:00,
2013-07-23 16:28:00,76.6,71.8,29.82,SSE,157,4.0,4.0,85,0.00,,---,0.00,VWS V14.00,2013-07-23 20:28:00,
2013-07-23 16:33:00,76.4,70.9,29.82,SSE,167,0.0,5.0,83,0.00,,---,0.00,VWS V14.00,2013-07-23 20:33:00,
2013-07-23 16:38:00,76.6,71.8,29.81,South,190,4.0,4.0,85,0.00,,---,0.00,VWS V14.00,2013-07-23 20:38:00,
2013-07-23 16:43:00,76.9,71.7,29.81,SSE,165,3.0,6.0,84,0.00,,---,0.00,VWS V14.00,2013-07-23 20:43:00,
2013-07-23 16:49:00,77.5,71.9,29.80,ESE,119,0.0,6.0,83,0.00,,---,0.00,VWS V14.00,2013-07-23 20:49:00,
2013-07-23 16:54:00,77.8,71.9,29.81,SSW,199,0.0,6.0,82,0.00,,---,0.00,VWS V14.00,2013-07-23 20:54:00,
2013-07-23 16:59:00,77.6,70.9,29.81,ESE,109,0.0,10.0,80,0.00,,---,0.00,VWS V14.00,2013-07-23 20:59:00,
2013-07-23 17:04:00,77.5,71.2,29.80,WSW,244,0.0,10.0,81,0.00,,---,0.00,VWS V14.00,2013-07-23 21:04:00,
2013-07-23 17:09:00,77.5,71.2,29.80,WSW,244,0.0,0.0,81,0.00,,---,0.00,VWS V14.00,2013-07-23 21:09:00,
2013-07-23 17:14:00,77.4,71.5,29.80,WSW,244,0.0,1.0,82,0.00,,---,0.00,VWS V14.00,2013-07-23 21:14:00,
2013-07-23 17:19:00,77.5,71.6,29.79,WSW,244,0.0,1.0,82,0.00,,---,0.00,VWS V14.00,2013-07-23 21:19:00,
2013-07-23 17:24:00,77.5,72.3,29.79,WSW,244,0.0,1.0,84,0.00,,---,0.00,VWS V14.00,2013-07-23 21:24:00,
2013-07-23 17:29:00,77.5,71.9,29.79,WSW,244,0.0,1.0,83,0.00,,---,0.00,VWS V14.00,2013-07-23 21:29:00,
2013-07-23 17:34:00,77.5,71.9,29.79,SSE,160,2.0,3.0,83,0.00,,---,0.00,VWS V14.00,2013-07-23 21:34:00,
2013-07-23 17:39:00,77.4,71.8,29.80,SSE,156,0.0,2.0,83,0.00,,---,0.00,VWS V14.00,2013-07-23 21:39:00,
2013-07-23 17:45:00,77.1,71.5,29.80,SSE,157,2.0,5.0,83,0.00,,---,0.00,VWS V14.00,2013-07-23 21:45:00,
2013-07-23 17:50:00,76.5,69.1,29.80,SSE,155,0.0,7.0,78,0.00,,---,0.00,VWS V14.00,2013-07-23 21:50:00,
2013-07-23 17:55:00,76.2,69.2,29.80,WSW,246,0.0,7.0,79,0.00,,---,0.00,VWS V14.00,2013-07-23 21:55:00,
2013-07-23 18:00:00,75.9,69.3,29.80,SE,142,0.0,7.0,80,0.00,,---,0.00,VWS V14.00,2013-07-23 22:00:00,
2013-07-23 18:05:00,75.7,70.2,29.80,SE,142,0.0,7.0,83,0.00,,---,0.00,VWS V14.00,2013-07-23 22:05:00,
2013-07-23 18:11:00,75.5,70.3,29.80,SE,142,0.0,0.0,84,0.00,,---,0.00,VWS V14.00,2013-07-23 22:11:00,
2013-07-23 18:16:00,75.4,70.2,29.81,SE,142,0.0,2.0,84,0.00,,---,0.00,VWS V14.00,2013-07-23 22:16:00,
2013-07-23 18:21:00,75.5,71.0,29.81,SE,142,0.0,2.0,86,0.00,,---,0.00,VWS V14.00,2013-07-23 22:21:00,
2013-07-23 18:26:00,75.4,70.9,29.82,SE,142,0.0,2.0,86,0.00,,---,0.00,VWS V14.00,2013-07-23 22:26:00,
2013-07-23 18:31:00,75.4,70.9,29.82,SE,142,0.0,2.0,86,0.00,,---,0.00,VWS V14.00,2013-07-23 22:31:00,
2013-07-23 18:36:00,75.4,71.3,29.82,SE,141,0.0,2.0,87,0.00,,---,0.00,VWS V14.00,2013-07-23 22:36:00,
2013-07-23 18:41:00,75.3,71.2,29.82,SE,141,0.0,0.0,87,0.00,,---,0.00,VWS V14.00,2013-07-23 22:41:00,
2013-07-23 18:46:00,75.3,70.5,29.82,SE,142,0.0,0.0,85,0.00,,---,0.00,VWS V14.00,2013-07-23 22:46:00,
2013-07-23 18:51:00,75.2,70.0,29.82,SSE,155,0.0,3.0,84,0.00,,---,0.00,VWS V14.00,2013-07-23 22:51:00,
2013-07-23 18:56:00,75.1,70.3,29.82,SSE,152,0.0,3.0,85,0.00,,---,0.00,VWS V14.00,2013-07-23 22:56:00,
2013-07-23 19:01:00,74.8,68.2,29.81,SSE,150,6.0,7.0,80,0.00,,---,0.00,VWS V14.00,2013-07-23 23:01:00,
2013-07-23 19:06:00,74.5,67.9,29.81,SSE,165,1.0,7.0,80,0.00,,---,0.00,VWS V14.00,2013-07-23 23:06:00,
2013-07-23 19:11:00,74.4,68.6,29.81,NE,52,0.0,3.0,82,0.00,,---,0.00,VWS V14.00,2013-07-23 23:11:00,
2013-07-23 19:16:00,74.3,68.4,29.81,ENE,65,0.0,3.0,82,0.00,,---,0.00,VWS V14.00,2013-07-23 23:16:00,
2013-07-23 19:21:00,74.2,68.7,29.82,NNE,27,0.0,3.0,83,0.00,,---,0.00,VWS V14.00,2013-07-23 23:21:00,
2013-07-23 19:26:00,73.9,68.1,29.82,NNE,27,0.0,3.0,82,0.00,,---,0.00,VWS V14.00,2013-07-23 23:26:00,
2013-07-23 19:31:00,73.8,68.0,29.82,NNW,338,0.0,3.0,82,0.00,,---,0.00,VWS V14.00,2013-07-23 23:31:00,
2013-07-23 19:36:00,73.6,67.8,29.81,SW,233,0.0,4.0,82,0.00,,---,0.00,VWS V14.00,2013-07-23 23:36:00,
2013-07-23 19:41:00,73.5,67.7,29.82,WSW,257,0.0,4.0,82,0.00,,---,0.00,VWS V14.00,2013-07-23 23:41:00,
2013-07-23 19:46:00,73.4,67.6,29.82,WNW,299,0.0,4.0,82,0.00,,---,0.00,VWS V14.00,2013-07-23 23:46:00,
2013-07-23 19:52:00,73.4,67.9,29.82,North,349,0.0,4.0,83,0.00,,---,0.00,VWS V14.00,2013-07-23 23:52:00,
2013-07-23 19:57:00,73.2,67.7,29.82,South,180,0.0,4.0,83,0.00,,---,0.00,VWS V14.00,2013-07-23 23:57:00,
2013-07-23 20:02:00,73.1,67.6,29.82,ESE,108,0.0,4.0,83,0.00,,---,0.00,VWS V14.00,2013-07-24 00:02:00,
2013-07-23 20:07:00,73.0,68.2,29.82,ESE,107,0.0,4.0,85,0.00,,---,0.00,VWS V14.00,2013-07-24 00:07:00,
2013-07-23 20:12:00,72.8,68.4,29.81,ESE,107,1.0,1.0,86,0.00,,---,0.00,VWS V14.00,2013-07-24 00:12:00,
2013-07-23 20:17:00,72.6,68.2,29.81,North,350,0.0,2.0,86,0.00,,---,0.00,VWS V14.00,2013-07-24 00:17:00,
2013-07-23 20:22:00,72.3,67.9,29.82,North,351,0.0,2.0,86,0.00,,---,0.00,VWS V14.00,2013-07-24 00:22:00,
2013-07-23 20:27:00,72.1,68.0,29.82,North,350,0.0,2.0,87,0.00,,---,0.00,VWS V14.00,2013-07-24 00:27:00,
2013-07-23 20:32:00,72.0,68.3,29.82,North,350,0.0,2.0,88,0.00,,---,0.00,VWS V14.00,2013-07-24 00:32:00,
2013-07-23 20:37:00,71.8,68.1,29.82,North,350,0.0,2.0,88,0.00,,---,0.00,VWS V14.00,2013-07-24 00:37:00,
2013-07-23 20:42:00,71.6,67.9,29.82,North,351,0.0,0.0,88,0.00,,---,0.00,VWS V14.00,2013-07-24 00:42:00,
2013-07-23 20:47:00,71.3,67.6,29.82,North,350,0.0,0.0,88,0.00,,---,0.00,VWS V14.00,2013-07-24 00:47:00,
2013-07-23 20:52:00,71.2,67.8,29.82,North,350,0.0,0.0,89,0.00,,---,0.00,VWS V14.00,2013-07-24 00:52:00,
2013-07-23 20:57:00,71.0,67.6,29.82,North,350,0.0,0.0,89,0.00,,---,0.00,VWS V14.00,2013-07-24 00:57:00,
2013-07-23 21:02:00,70.8,67.4,29.82,North,351,0.0,1.0,89,0.00,,---,0.00,VWS V14.00,2013-07-24 01:02:00,
2013-07-23 21:08:00,70.7,67.6,29.82,North,350,0.0,0.0,90,0.00,,---,0.00,VWS V14.00,2013-07-24 01:08:00,
2013-07-23 21:13:00,70.6,67.5,29.81,North,350,0.0,0.0,90,0.00,,---,0.00,VWS V14.00,2013-07-24 01:13:00,
2013-07-23 21:18:00,70.5,67.4,29.81,North,350,0.0,0.0,90,0.00,,---,0.00,VWS V14.00,2013-07-24 01:18:00,
2013-07-23 21:23:00,70.4,67.3,29.83,North,350,0.0,1.0,90,0.00,,---,0.00,VWS V14.00,2013-07-24 01:23:00,
2013-07-23 21:28:00,70.3,67.6,29.83,North,350,0.0,1.0,91,0.00,,---,0.00,VWS V14.00,2013-07-24 01:28:00,
2013-07-23 21:33:00,70.3,67.6,29.83,North,350,0.0,1.0,91,0.00,,---,0.00,VWS V14.00,2013-07-24 01:33:00,
2013-07-23 21:39:00,70.2,67.4,29.83,North,350,0.0,0.0,91,0.00,,---,0.00,VWS V14.00,2013-07-24 01:39:00,
2013-07-23 21:44:00,70.1,67.4,29.84,North,350,0.0,0.0,91,0.00,,---,0.00,VWS V14.00,2013-07-24 01:44:00,
2013-07-23 21:49:00,70.1,67.7,29.84,North,350,0.0,0.0,92,0.00,,---,0.00,VWS V14.00,2013-07-24 01:49:00,
2013-07-23 21:54:00,70.1,67.7,29.84,North,350,0.0,0.0,92,0.00,,---,0.00,VWS V14.00,2013-07-24 01:54:00,
2013-07-23 21:59:00,70.2,67.8,29.85,North,350,0.0,0.0,92,0.00,,---,0.00,VWS V14.00,2013-07-24 01:59:00,
2013-07-23 22:04:00,70.2,67.8,29.85,North,350,0.0,0.0,92,0.00,,---,0.00,VWS V14.00,2013-07-24 02:04:00,
2013-07-23 22:09:00,70.2,67.8,29.84,North,350,0.0,0.0,92,0.00,,---,0.00,VWS V14.00,2013-07-24 02:09:00,
2013-07-23 22:14:00,70.2,67.8,29.84,North,350,0.0,0.0,92,0.00,,---,0.00,VWS V14.00,2013-07-24 02:14:00,
2013-07-23 22:19:00,70.1,67.7,29.84,North,350,0.0,0.0,92,0.00,,---,0.00,VWS V14.00,2013-07-24 02:19:00,
2013-07-23 22:24:00,70.1,67.7,29.84,North,350,0.0,0.0,92,0.00,,---,0.00,VWS V14.00,2013-07-24 02:24:00,
2013-07-23 22:29:00,70.0,67.6,29.84,North,350,0.0,0.0,92,0.00,,---,0.00,VWS V14.00,2013-07-24 02:29:00,
2013-07-23 22:34:00,69.9,67.5,29.83,North,350,0.0,0.0,92,0.00,,---,0.00,VWS V14.00,2013-07-24 02:34:00,
2013-07-23 22:39:00,69.8,67.4,29.83,North,350,0.0,0.0,92,0.00,,---,0.00,VWS V14.00,2013-07-24 02:39:00,
2013-07-23 22:44:00,69.7,67.3,29.84,North,350,0.0,0.0,92,0.00,,---,0.00,VWS V14.00,2013-07-24 02:44:00,
2013-07-23 22:50:00,69.6,67.5,29.83,North,350,0.0,0.0,93,0.00,,---,0.00,VWS V14.00,2013-07-24 02:50:00,
2013-07-23 22:55:00,69.5,67.4,29.83,North,350,0.0,0.0,93,0.00,,---,0.00,VWS V14.00,2013-07-24 02:55:00,
2013-07-23 23:00:00,69.4,67.3,29.84,North,350,0.0,0.0,93,0.00,,---,0.00,VWS V14.00,2013-07-24 03:00:00,
2013-07-23 23:05:00,69.4,67.3,29.84,North,350,0.0,0.0,93,0.00,,---,0.00,VWS V14.00,2013-07-24 03:05:00,
2013-07-23 23:10:00,69.3,67.2,29.83,North,350,0.0,0.0,93,0.00,,---,0.00,VWS V14.00,2013-07-24 03:10:00,
2013-07-23 23:15:00,69.3,67.2,29.83,North,350,0.0,0.0,93,0.00,,---,0.00,VWS V14.00,2013-07-24 03:15:00,
2013-07-23 23:20:00,69.3,67.2,29.83,North,350,0.0,0.0,93,0.00,,---,0.00,VWS V14.00,2013-07-24 03:20:00,
2013-07-23 23:25:00,69.3,67.5,29.83,North,350,0.0,0.0,94,0.00,,---,0.00,VWS V14.00,2013-07-24 03:25:00,
2013-07-23 23:30:00,69.3,67.2,29.84,NW,314,0.0,3.0,93,0.00,,---,0.00,VWS V14.00,2013-07-24 03:30:00,
2013-07-23 23:35:00,69.3,67.2,29.84,NW,314,0.0,3.0,93,0.00,,---,0.00,VWS V14.00,2013-07-24 03:35:00,
2013-07-23 23:40:00,69.3,67.5,29.84,NW,315,0.0,1.0,94,0.00,,---,0.00,VWS V14.00,2013-07-24 03:40:00,
2013-07-23 23:45:00,69.4,67.6,29.83,NW,315,0.0,1.0,94,0.00,,---,0.00,VWS V14.00,2013-07-24 03:45:00,
2013-07-23 23:50:00,69.4,67.3,29.84,NW,315,0.0,1.0,93,0.00,,---,0.00,VWS V14.00,2013-07-24 03:50:00,
2013-07-23 23:55:00,69.5,67.4,29.83,NW,314,0.0,1.0,93,0.00,,---,0.00,VWS V14.00,2013-07-24 03:55:00,